DFERH EDDG-EDLW

Flight info

Callsign DFERH
Flight time 0h 17m
Altitude
Route
Aircraft C208

Departure

Time 2026-04-27 16:11
Airport Münster Osnabrück Airport (EDDG)

Arrival

Time 2026-04-27 16:28
Airport Dortmund Airport (EDLW)
Time Latitude Longitude Altitude Speed Heading
2026-04-27 16:04 52.13672 7.67852 166 ft 0 kts 156°
2026-04-27 16:08 52.13637 7.67934 166 ft 8 kts 96°
2026-04-27 16:09 52.13636 7.67941 166 ft 0 kts 96°
2026-04-27 16:09 52.13528 7.68107 166 ft 17 kts 143°
2026-04-27 16:09 52.13488 7.68154 166 ft 0 kts 143°
2026-04-27 16:10 52.13463 7.68186 166 ft 17 kts 142°
2026-04-27 16:11 52.13465 7.68485 167 ft 59 kts 69°
2026-04-27 16:11 52.13932 7.70574 790 ft 112 kts 69°
2026-04-27 16:12 52.13286 7.72518 1573 ft 146 kts 195°
2026-04-27 16:12 52.12430 7.71483 1805 ft 158 kts 225°
2026-04-27 16:12 52.10832 7.68794 2143 ft 170 kts 228°
2026-04-27 16:13 52.10037 7.67334 2243 ft 177 kts 231°
2026-04-27 16:13 52.09119 7.63623 2248 ft 184 kts 265°
2026-04-27 16:13 52.08637 7.61717 2233 ft 181 kts 242°
2026-04-27 16:14 52.07007 7.58850 2232 ft 170 kts 219°
2026-04-27 16:14 52.05173 7.56447 2233 ft 167 kts 219°
2026-04-27 16:15 52.03003 7.55795 2213 ft 163 kts 173°
2026-04-27 16:15 52.00719 7.56057 2212 ft 165 kts 174°
2026-04-27 16:16 51.98441 7.56319 2215 ft 164 kts 173°
2026-04-27 16:16 51.96185 7.56591 2210 ft 161 kts 173°
2026-04-27 16:17 51.93943 7.56897 2212 ft 163 kts 173°
2026-04-27 16:17 51.91680 7.57196 2208 ft 163 kts 173°
2026-04-27 16:18 51.89435 7.57475 2209 ft 164 kts 173°
2026-04-27 16:18 51.87139 7.57732 2216 ft 166 kts 173°
2026-04-27 16:19 51.85983 7.57839 2213 ft 166 kts 174°
2026-04-27 16:19 51.84830 7.57979 2192 ft 166 kts 173°
2026-04-27 16:20 51.81389 7.58381 2190 ft 164 kts 172°
2026-04-27 16:20 51.80268 7.58523 2186 ft 163 kts 173°
2026-04-27 16:20 51.78005 7.58843 2195 ft 163 kts 173°
2026-04-27 16:21 51.76871 7.59004 2190 ft 164 kts 173°
2026-04-27 16:21 51.73454 7.59445 2188 ft 164 kts 173°
2026-04-27 16:22 51.72317 7.59604 2184 ft 164 kts 173°
2026-04-27 16:22 51.70035 7.59899 2184 ft 166 kts 172°
2026-04-27 16:22 51.68869 7.60031 2185 ft 165 kts 173°
2026-04-27 16:23 51.67739 7.60149 2182 ft 165 kts 173°
2026-04-27 16:23 51.65474 7.60368 2184 ft 161 kts 174°
2026-04-27 16:23 51.64353 7.60504 2181 ft 162 kts 173°
2026-04-27 16:24 51.63227 7.60626 2181 ft 162 kts 173°
2026-04-27 16:24 51.60966 7.60859 2185 ft 163 kts 173°
2026-04-27 16:25 51.58710 7.61127 2185 ft 162 kts 173°
2026-04-27 16:25 51.56422 7.61261 2087 ft 170 kts 177°
2026-04-27 16:26 51.54217 7.60652 1369 ft 143 kts 195°
2026-04-27 16:26 51.52598 7.59581 957 ft 117 kts 236°
2026-04-27 16:27 51.51705 7.57641 1118 ft 94 kts 206°
2026-04-27 16:27 51.51245 7.59580 641 ft 76 kts 56°
2026-04-27 16:28 51.51734 7.60965 420 ft 59 kts 54°
2026-04-27 16:28 51.52043 7.61813 414 ft 33 kts 58°
2026-04-27 16:29 51.52075 7.62404 413 ft 15 kts 179°
2026-04-27 16:30 51.51941 7.62168 414 ft 1 kts 246°
2026-04-27 16:30 51.51790 7.61635 418 ft 46 kts 239°
2026-04-27 16:31 51.51530 7.60659 420 ft 15 kts 295°
2026-04-27 16:31 51.51550 7.60630 419 ft 0 kts 321°
2026-04-27 16:33 51.51669 7.60728 416 ft 28 kts 56°
2026-04-27 16:33 51.51819 7.61200 419 ft 76 kts 52°
2026-04-27 16:33 51.52105 7.62074 542 ft 106 kts 53°
2026-04-27 16:33 51.52554 7.63166 702 ft 123 kts 57°
2026-04-27 16:34 51.52574 7.64323 984 ft 129 kts 152°
2026-04-27 16:34 51.51745 7.65103 1009 ft 143 kts 141°
2026-04-27 16:34 51.50915 7.66035 1030 ft 150 kts 144°
2026-04-27 16:34 51.49976 7.66765 1174 ft 149 kts 155°
2026-04-27 16:35 51.49042 7.67468 1301 ft 147 kts 149°
2026-04-27 16:35 51.48183 7.68328 1428 ft 144 kts 143°